"Timestamp","TZ","WindDir_Mean (deg)","WindSpd_Mean (km/h)","WindSpd_Min (km/h)","WindSpd_Max (km/h)","Temp_Mean (deg)","RH_Mean (%)","MSLP_Mean (hPa)","Rain_Acc (mm)","Rain_Intensity (mm/h)","Hail_Acc (hits/cm2)","Hail_Intensity (hits/cm2hr)","Solar_Mean (W/m2)"
2023/07/02 00:00:00.013,n,153,4.68,1.8,6.48,12.4,58.5,1025.42,0,0,0,0,0.020027
2023/07/02 00:01:00.001,n,242,2.88,1.44,6.12,12.4,58.5,1025.42,0,0,0,0,0.018272
2023/07/02 00:02:00.001,n,199,0.72,0.36,1.08,12.4,58.6,1025.52,0,0,0,0,0.020027
2023/07/02 00:03:00.002,n,169,4.68,1.44,6.84,12.4,58.7,1025.52,0,0,0,0,0.019188
2023/07/02 00:04:00.001,n,171,4.68,1.8,7.2,12.4,58.7,1025.42,0,0,0,0,0.017395
2023/07/02 00:05:00.001,n,181,7.2,3.96,8.28,12.4,58.7,1025.42,0,0,0,0,0.019188
2023/07/02 00:06:00.001,n,139,1.8,1.08,2.16,12.4,58.9,1025.42,0,0,0,0,0.020905
2023/07/02 00:07:00.001,n,160,1.44,0.72,3.96,12.4,59,1025.42,0,0,0,0,0.025253
2023/07/02 00:08:00.002,n,300,2.52,1.44,3.24,12.4,60,1025.42,0,0,0,0,0.020905
2023/07/02 00:09:00.004,n,175,2.52,1.08,4.32,12.4,60.2,1025.32,0,0,0,0,0.020905
2023/07/02 00:10:00.001,n,304,1.8,1.08,2.52,12.4,59.9,1025.32,0,0,0,0,0.019188
2023/07/02 00:11:00.001,n,164,4.68,3.24,7.92,12.4,59.2,1025.32,0,0,0,0,0.021782
2023/07/02 00:12:00.001,n,174,2.52,1.8,2.88,12.3,59.1,1025.32,0,0,0,0,0.019188
2023/07/02 00:13:00.001,n,127,3.96,1.44,5.4,12.3,59.4,1025.32,0,0,0,0,0.020905
2023/07/02 00:14:00.002,n,169,5.4,2.16,6.84,12.3,59.4,1025.42,0,0,0,0,0.018272
2023/07/02 00:15:00.004,n,220,2.52,1.44,4.32,12.3,59.2,1025.32,0,0,0,0,0.020027
2023/07/02 00:16:00.005,n,146,4.68,3.24,9,12.3,59.4,1025.32,0,0,0,0,0.028763
2023/07/02 00:17:00.006,n,176,3.96,1.44,6.48,12.3,59.4,1025.32,0,0,0,0,0.028763
2023/07/02 00:18:00.010,n,208,3.24,1.8,5.04,12.3,59.4,1025.32,0,0,0,0,0.027046
2023/07/02 00:19:00.001,n,127,3.24,2.52,3.6,12.3,59.8,1025.32,0,0,0,0,0.026169
2023/07/02 00:20:00.001,n,141,5.76,2.52,8.28,12.3,59.6,1025.32,0,0,0,0,0.028763
2023/07/02 00:21:00.002,n,169,8.64,5.4,10.440002,12.3,59.8,1025.22,0,0,0,0,0.027885
2023/07/02 00:22:00.001,n,170,4.68,2.16,7.92,12.3,60,1025.22,0,0,0,0,0.026169
2023/07/02 00:23:00.002,n,155,9,3.6,13.68,12.3,59.9,1025.12,0,0,0,0,0.029678
2023/07/02 00:24:00.010,n,218,1.08,0.72,2.16,12.3,60,1025.12,0,0,0,0,0.024414
2023/07/02 00:25:00.013,n,174,5.76,2.52,9,12.3,59.9,1025.12,0,0,0,0,0.026169
2023/07/02 00:26:00.017,n,169,11.16,1.8,18,12.3,59.9,1025.22,0,0,0,0,0.027885
2023/07/02 00:27:00.002,n,181,7.56,4.32,10.8,12.3,59.8,1025.22,0,0,0,0,0.025291
2023/07/02 00:28:00.002,n,243,3.96,2.16,4.68,12.3,59.9,1025.32,0,0,0,0,0.025291
2023/07/02 00:29:00.001,n,224,2.88,1.44,4.68,12.3,60.3,1025.32,0,0,0,0,0.024414
2023/07/02 00:30:00.001,n,206,2.16,1.8,3.6,12.3,60.3,1025.42,0,0,0,0,0.027046
2023/07/02 00:31:00.004,n,302,2.52,0.72,3.6,12.3,61.1,1025.42,0,0,0,0,0.027885
2023/07/02 00:32:00.001,n,164,6.48,4.68,9.72,12.3,60.2,1025.42,0,0,0,0,0.024414
2023/07/02 00:33:00.002,n,285,5.76,4.68,5.76,12.3,60.1,1025.42,0,0,0,0,0.024414
2023/07/02 00:34:00.001,n,260,3.6,1.08,5.4,12.3,60,1025.42,0,0,0,0,0.025291
2023/07/02 00:35:00.016,n,159,2.88,1.08,5.76,12.3,60.2,1025.52,0,0,0,0,0.025291
2023/07/02 00:36:00.003,n,272,5.76,4.68,6.48,12.3,59.9,1025.52,0,0,0,0,0.026169
2023/07/02 00:37:00.003,n,256,2.88,0.72,4.32,12.3,60.1,1025.52,0,0,0,0,0.027885
2023/07/02 00:38:00.005,n,306,3.96,2.52,5.4,12.3,60.5,1025.52,0,0,0,0,0.025291
2023/07/02 00:39:00.006,n,269,3.24,1.8,4.32,12.3,60.3,1025.52,0,0,0,0,0.025291
2023/07/02 00:40:00.007,n,215,4.32,3.6,5.4,12.3,60.6,1025.42,0,0,0,0,0.025291
2023/07/02 00:41:00.009,n,228,2.52,0.72,4.68,12.3,60.8,1025.42,0,0,0,0,0.025291
2023/07/02 00:42:00.001,n,187,3.6,1.44,5.04,12.3,60.3,1025.32,0,0,0,0,0.025291
2023/07/02 00:43:00.003,n,306,2.16,0.72,3.24,12.3,60.3,1025.22,0,0,0,0,0.027046
2023/07/02 00:44:00.005,n,234,7.2,6.48,7.92,12.3,60,1025.22,0,0,0,0,0.027885
2023/07/02 00:45:00.007,n,130,1.44,1.08,1.8,12.3,60.2,1025.22,0,0,0,0,0.028763
2023/07/02 00:46:00.001,n,16,1.44,0.72,5.04,12.3,60.2,1025.22,0,0,0,0,0.023537
2023/07/02 00:47:00.001,n,205,1.8,0.36,4.68,12.3,60.2,1025.22,0,0,0,0,0.026169
2023/07/02 00:48:00.009,n,220,2.88,2.16,3.6,12.3,60.8,1025.12,0,0,0,0,0.028763
2023/07/02 00:49:00.007,n,275,1.44,0.36,3.6,12.3,61.2,1025.02,0,0,0,0,0.030518
2023/07/02 00:50:00.005,n,207,2.16,0.36,2.88,12.3,60.6,1024.82,0,0,0,0,0.035744
2023/07/02 00:51:00.016,n,160,5.04,2.88,9,12.3,60.4,1024.82,0,0,0,0,0.038376
2023/07/02 00:52:00.011,n,109,0.36,0.36,0.72,12.3,60.2,1024.82,0,0,0,0,0.041847
2023/07/02 00:53:00.003,n,97,1.8,1.8,2.16,12.3,60.5,1024.82,0,0,0,0,0.044441
2023/07/02 00:54:00.017,n,161,2.88,0,5.76,12.3,60.4,1024.82,0,0,0,0,0.045319
2023/07/02 00:55:00.001,n,174,2.52,1.08,7.2,12.3,60.2,1024.92,0,0,0,0,0.024376
2023/07/02 00:56:00.001,n,170,5.4,1.8,9,12.3,59.8,1024.82,0,0,0,0,0.030479
2023/07/02 00:57:00.006,n,166,2.52,1.8,3.24,12.3,60.3,1024.82,0,0,0,0,0.032234
2023/07/02 00:58:00.001,n,165,3.6,2.88,5.04,12.3,60.1,1024.72,0,0,0,0,0.036583
2023/07/02 00:59:00.001,n,154,2.88,1.44,5.76,12.3,60,1024.62,0,0,0,0,0.041809
2023/07/02 01:00:00.001,n,65,1.08,0.72,1.8,12.3,60.2,1024.52,0,0,0,0,0.043526
2023/07/02 01:01:00.003,n,160,7.2,3.96,8.64,12.2,60.1,1024.42,0,0,0,0,0.044403
2023/07/02 01:02:00.002,n,219,0.36,0,0.72,12.2,60.2,1024.52,0,0,0,0,0.047874
2023/07/02 01:03:00.009,n,322,2.16,1.08,6.84,12.2,61.4,1024.62,0,0,0,0,0.048752
2023/07/02 01:04:00.001,n,227,1.8,0.72,3.24,12.2,60.7,1024.72,0,0,0,0,0.048752
2023/07/02 01:05:00.007,n,277,7.2,6.48,7.92,12.2,60.3,1024.82,0,0,0,0,0.032196
2023/07/02 01:06:00.001,n,242,2.88,0.72,5.4,12.2,60.3,1024.82,0,0,0,0,0.033073
2023/07/02 01:07:00.003,n,296,3.24,2.16,5.04,12.2,60.9,1024.82,0,0,0,0,0.033989
2023/07/02 01:08:00.001,n,233,1.08,0.72,2.88,12.2,60.6,1024.72,0,0,0,0,0.037422
2023/07/02 01:09:00.009,n,284,2.88,0.72,4.32,12.2,60.7,1024.62,0,0,0,0,0.036583
2023/07/02 01:10:00.001,n,145,1.08,0.36,5.4,12.2,60.7,1024.52,0,0,0,0,0.039177
2023/07/02 01:11:00.016,n,232,2.52,1.8,3.24,12.1,60.9,1024.52,0,0,0,0,0.036583
2023/07/02 01:12:00.026,n,287,1.44,0.72,3.24,12.1,61.2,1024.52,0,0,0,0,0.040932
2023/07/02 01:13:00.001,n,268,2.52,2.16,2.88,12.1,61.3,1024.62,0,0,0,0,0.040054
2023/07/02 01:14:00.003,n,216,2.88,0.36,7.56,12.1,61.3,1024.62,0,0,0,0,0.043564
2023/07/02 01:15:00.001,n,105,2.52,0.72,3.96,12.1,61.1,1024.62,0,0,0,0,0.043564
2023/07/02 01:16:00.003,n,217,3.6,2.52,4.32,12.1,61,1024.72,0,0,0,0,0.047913
2023/07/02 01:17:00.004,n,276,6.48,5.76,6.84,12.1,60.9,1024.62,0,0,0,0,0.047913
2023/07/02 01:18:00.010,n,243,2.16,1.08,2.52,12.1,61,1024.62,0,0,0,0,0.048752
2023/07/02 01:19:00.003,n,225,4.32,2.52,5.76,12.1,60.9,1024.62,0,0,0,0,0.050507
2023/07/02 01:20:00.008,n,296,5.4,3.6,6.84,12.1,60.9,1024.62,0,0,0,0,0.021744
2023/07/02 01:21:00.004,n,251,4.32,1.44,5.4,12,60.9,1024.62,0,0,0,0,0.028725
2023/07/02 01:22:00.002,n,291,3.96,3.6,4.32,12,60.8,1024.72,0,0,0,0,0.032234
2023/07/02 01:23:00.005,n,224,3.24,1.44,4.68,12,60.8,1024.72,0,0,0,0,0.031357
2023/07/02 01:24:00.001,n,175,5.76,2.88,7.56,12,60.7,1024.72,0,0,0,0,0.032234
2023/07/02 01:25:00.003,n,254,2.16,1.44,2.52,12,60.9,1024.72,0,0,0,0,0.034828
2023/07/02 01:26:00.001,n,92,1.8,1.08,2.88,12,60.7,1024.72,0,0,0,0,0.032234
2023/07/02 01:27:00.002,n,255,4.68,4.68,5.04,12,60.5,1024.72,0,0,0,0,0.033951
2023/07/02 01:28:00.013,n,275,6.12,5.76,7.2,12,60.5,1024.72,0,0,0,0,0.034828
2023/07/02 01:29:00.004,n,144,3.24,2.16,4.68,12,60.6,1024.72,0,0,0,0,0.035706
2023/07/02 01:30:00.009,n,266,3.6,0.72,5.4,12,60.5,1024.72,0,0,0,0,0.036583
2023/07/02 01:31:00.001,n,135,2.88,1.08,3.6,12,60.7,1024.72,0,0,0,0,0.0383
2023/07/02 01:32:00.002,n,236,1.44,1.08,3.24,12,61.1,1024.62,0,0,0,0,0.039177
2023/07/02 01:33:00.001,n,55,0.72,0.36,1.44,12,60.8,1024.62,0,0,0,0,0.039177
2023/07/02 01:34:00.001,n,200,2.52,1.8,2.88,12,61,1024.62,0,0,0,0,0.036583
2023/07/02 01:35:00.012,n,172,7.56,3.96,10.440002,12,60.9,1024.52,0,0,0,0,0.040054
2023/07/02 01:36:00.020,n,194,2.52,0.72,5.4,12,60.9,1024.52,0,0,0,0,0.039177
2023/07/02 01:37:00.001,n,300,3.24,2.52,3.6,12,61.3,1024.62,0,0,0,0,0.040054
2023/07/02 01:38:00.009,n,180,3.24,1.08,7.92,12,61.1,1024.62,0,0,0,0,0.040932
2023/07/02 01:39:00.004,n,147,3.96,2.52,5.4,12,61.1,1024.62,0,0,0,0,0.042648
2023/07/02 01:40:00.001,n,192,2.88,1.44,4.68,12,61.1,1024.62,0,0,0,0,0.041809
2023/07/02 01:41:00.001,n,180,4.32,3.24,6.48,12,61.1,1024.62,0,0,0,0,0.040932
2023/07/02 01:42:00.007,n,217,1.8,0.36,6.12,12.1,61.2,1024.62,0,0,0,0,0.040932
2023/07/02 01:43:00.001,n,213,1.08,0.72,1.8,12.1,61.1,1024.62,0,0,0,0,0.040932
2023/07/02 01:44:00.001,n,157,7.92,3.24,10.08,12.1,61.2,1024.52,0,0,0,0,0.040054
2023/07/02 01:45:00.011,n,148,5.4,4.32,6.48,12.1,61.1,1024.42,0,0,0,0,0.042648
2023/07/02 01:46:00.003,n,173,9,6.84,11.88,12.1,61,1024.42,0,0,0,0,0.040932
2023/07/02 01:47:00.007,n,159,5.4,4.68,10.440002,12.1,61.2,1024.42,0,0,0,0,0.043526
2023/07/02 01:48:00.006,n,157,9,5.04,11.88,12.1,61.4,1024.42,0,0,0,0,0.04528
2023/07/02 01:49:00.001,n,158,6.48,4.32,10.8,12.1,61.3,1024.42,0,0,0,0,0.043526
2023/07/02 01:50:00.002,n,177,5.4,2.52,8.64,12.1,61.4,1024.52,0,0,0,0,0.024376
2023/07/02 01:51:00.001,n,155,0.72,0.36,1.08,12,61.5,1024.52,0,0,0,0,0.032234
2023/07/02 01:52:00.015,n,164,5.4,1.08,6.84,12,61.6,1024.52,0,0,0,0,0.028725
2023/07/02 01:53:00.001,n,181,1.44,0.36,5.04,12,61.3,1024.52,0,0,0,0,0.02964
2023/07/02 01:54:00.007,n,184,1.08,0.36,5.04,12.1,61.5,1024.52,0,0,0,0,0.031357
2023/07/02 01:55:00.016,n,211,2.88,1.44,3.96,12.1,61.4,1024.52,0,0,0,0,0.02964
2023/07/02 01:56:00.004,n,172,5.4,2.16,9,12.1,61.2,1024.62,0,0,0,0,0.030479
2023/07/02 01:57:00.012,n,195,2.88,2.52,3.6,12,61.2,1024.62,0,0,0,0,0.030479
2023/07/02 01:58:00.001,n,156,1.44,0.72,3.24,12,61.3,1024.72,0,0,0,0,0.030479
2023/07/02 01:59:00.001,n,177,4.68,2.52,7.2,12,61.4,1024.72,0,0,0,0,0.031357
2023/07/02 02:00:00.001,n,156,2.88,1.08,3.96,12,61.4,1024.72,0,0,0,0,0.030479
2023/07/02 02:01:00.002,n,167,8.28,4.68,11.52,12,61.4,1024.72,0,0,0,0,0.027847
2023/07/02 02:02:00.001,n,196,3.96,2.52,5.04,12,61.5,1024.72,0,0,0,0,0.027847
2023/07/02 02:03:00.010,n,158,10.440002,3.6,15.84,12,61.5,1024.72,0,0,0,0,0.030479
2023/07/02 02:04:00.013,n,151,8.28,5.04,12.96,12,61.6,1024.72,0,0,0,0,0.031357
2023/07/02 02:05:00.005,n,160,6.48,5.4,12.24,12,61.6,1024.72,0,0,0,0,0.02964
2023/07/02 02:06:00.020,n,145,6.84,0.72,11.88,12,61.6,1024.72,0,0,0,0,0.027008
2023/07/02 02:07:00.002,n,182,1.8,0.72,6.12,12,61.6,1024.82,0,0,0,0,0.028725
2023/07/02 02:08:00.001,n,204,7.92,4.68,11.16,12,61.6,1024.72,0,0,0,0,0.028725
2023/07/02 02:09:00.001,n,186,2.16,0.36,2.88,12,61.8,1024.72,0,0,0,0,0.027847
2023/07/02 02:10:00.001,n,154,2.52,1.08,6.12,12,61.8,1024.72,0,0,0,0,0.027008
2023/07/02 02:11:00.016,n,128,2.52,1.44,5.4,12,61.8,1024.62,0,0,0,0,0.031357
2023/07/02 02:12:00.001,n,122,3.24,2.52,4.32,12,61.8,1024.62,0,0,0,0,0.02964
2023/07/02 02:13:00.002,n,187,7.56,5.4,9.36,12,61.7,1024.72,0,0,0,0,0.028725
2023/07/02 02:14:00.013,n,158,2.52,1.44,3.24,12,61.8,1024.72,0,0,0,0,0.032234
2023/07/02 02:15:00.019,n,205,4.68,3.6,7.56,12,61.8,1024.72,0,0,0,0,0.02964
2023/07/02 02:16:00.001,n,165,10.440002,7.2,13.68,12,61.6,1024.72,0,0,0,0,0.02964
2023/07/02 02:17:00.004,n,156,7.92,5.04,11.88,12,61.7,1024.72,0,0,0,0,0.027008
2023/07/02 02:18:00.005,n,150,6.12,3.96,9,12,61.6,1024.72,0,0,0,0,0.031357
2023/07/02 02:19:00.006,n,216,0.72,0.36,1.08,12,61.5,1024.72,0,0,0,0,0.02964
2023/07/02 02:20:00.012,n,155,12.24,8.64,14.4,12,61.5,1024.52,0,0,0,0,0.032234
2023/07/02 02:21:00.011,n,141,5.76,5.4,6.48,12,61.4,1024.42,0,0,0,0,0.031357
2023/07/02 02:22:00.005,n,128,5.76,3.96,6.84,12,61.5,1024.42,0,0,0,0,0.027847
2023/07/02 02:23:00.007,n,155,9,6.84,12.96,12,61.5,1024.32,0,0,0,0,0.027008
2023/07/02 02:24:00.009,n,162,12.96,12.24,13.68,12,61.5,1024.32,0,0,0,0,0.02964
2023/07/02 02:25:00.006,n,160,6.12,3.24,9,12,61.4,1024.32,0,0,0,0,0.028725
2023/07/02 02:26:00.001,n,57,1.44,0.36,2.16,12,61.5,1024.22,0,0,0,0,0.031357
2023/07/02 02:27:00.001,n,153,6.84,4.32,10.8,12,61.4,1024.22,0,0,0,0,0.030479
2023/07/02 02:28:00.005,n,163,10.440002,7.92,14.76,12,61.4,1024.22,0,0,0,0,0.02964
2023/07/02 02:29:00.011,n,149,3.24,1.08,5.76,12,61.5,1024.32,0,0,0,0,0.031357
2023/07/02 02:30:00.001,n,325,1.44,1.44,1.8,12,61.7,1024.42,0,0,0,0,0.02964
2023/07/02 02:31:00.016,n,149,4.32,3.96,5.04,12,61.6,1024.42,0,0,0,0,0.030479
2023/07/02 02:32:00.013,n,173,5.76,2.16,9.36,12,61.5,1024.42,0,0,0,0,0.031357
2023/07/02 02:33:00.011,n,290,2.52,1.44,3.24,12,61.5,1024.42,0,0,0,0,0.032234
2023/07/02 02:34:00.001,n,124,1.44,0.36,2.88,12,61.5,1024.42,0,0,0,0,0.028725
2023/07/02 02:35:00.002,n,164,1.08,0.36,1.8,12,61.4,1024.52,0,0,0,0,0.027847
2023/07/02 02:36:00.004,n,257,3.24,1.44,3.6,12,61.5,1024.52,0,0,0,0,0.028725
2023/07/02 02:37:00.010,n,189,1.8,1.08,2.88,12.1,61.5,1024.52,0,0,0,0,0.028725
2023/07/02 02:38:00.009,n,84,1.8,0.36,5.4,12.1,61.5,1024.62,0,0,0,0,0.031357
2023/07/02 02:39:00.006,n,355,2.52,1.44,7.92,12.1,61.6,1024.62,0,0,0,0,0.027847
2023/07/02 02:40:00.011,n,214,0.72,0,1.08,12.1,61.6,1024.62,0,0,0,0,0.030479
2023/07/02 02:41:00.017,n,137,0.72,0,1.08,12.1,61.6,1024.62,0,0,0,0,0.02964
2023/07/02 02:42:00.014,n,156,8.64,6.48,11.16,12.1,61.5,1024.62,0,0,0,0,0.032234
2023/07/02 02:43:00.001,n,221,1.08,0.36,1.8,12,61.4,1024.62,0,0,0,0,0.02964
2023/07/02 02:44:00.001,n,203,4.68,3.24,5.76,12,61.5,1024.52,0,0,0,0,0.02964
2023/07/02 02:45:00.008,n,208,1.8,0.72,5.76,12,61.5,1024.52,0,0,0,0,0.031357
2023/07/02 02:46:00.004,n,158,3.24,1.44,5.76,12,61.7,1024.52,0,0,0,0,0.02964
2023/07/02 02:47:00.010,n,109,2.52,1.44,2.88,12,61.7,1024.52,0,0,0,0,0.031357
2023/07/02 02:48:00.005,n,151,10.440002,6.84,14.04,12,61.7,1024.52,0,0,0,0,0.031357
2023/07/02 02:49:00.004,n,206,7.2,6.12,8.64,12,61.6,1024.52,0,0,0,0,0.034828
2023/07/02 02:50:00.001,n,119,1.44,1.08,1.8,12,61.7,1024.52,0,0,0,0,0.030479
2023/07/02 02:51:00.007,n,150,4.68,0.72,6.48,12,61.7,1024.52,0,0,0,0,0.032234
2023/07/02 02:52:00.001,n,154,5.04,3.24,9,12,61.8,1024.42,0,0,0,0,0.027008
2023/07/02 02:53:00.001,n,223,2.88,1.8,5.76,12,61.9,1024.32,0,0,0,0,0.034828
2023/07/02 02:54:00.001,n,156,6.48,1.8,7.56,12,61.9,1024.32,0,0,0,0,0.030479
2023/07/02 02:55:00.001,n,106,1.8,1.08,2.52,12,62,1024.22,0,0,0,0,0.031357
2023/07/02 02:56:00.010,n,331,1.08,0.72,1.44,12,61.8,1024.22,0,0,0,0,0.02964
2023/07/02 02:57:00.006,n,173,1.8,0.72,5.76,12,62.3,1024.12,0,0,0,0,0.030479
2023/07/02 02:58:00.002,n,121,3.6,3.24,3.6,12,61.8,1024.02,0,0,0,0,0.02964
2023/07/02 02:59:00.017,n,239,2.52,1.8,2.88,12,62.1,1023.92,0,0,0,0,0.033073
2023/07/02 03:00:00.011,n,71,1.8,1.44,2.16,12,62.1,1023.82,0,0,0,0,0.030479
2023/07/02 03:01:00.001,n,184,2.16,0.72,4.32,12,62,1023.82,0,0,0,0,0.033989
2023/07/02 03:02:00.001,n,133,0.72,0.36,1.44,12,62,1023.82,0,0,0,0,0.031357
2023/07/02 03:03:00.001,n,121,4.32,1.44,5.76,12,61.9,1023.82,0,0,0,0,0.028725
2023/07/02 03:04:00.009,n,154,2.88,1.44,4.32,12,61.8,1023.82,0,0,0,0,0.032234
2023/07/02 03:05:00.007,n,154,2.16,1.8,2.52,12,61.5,1023.82,0,0,0,0,0.033073
2023/07/02 03:06:00.005,n,263,4.68,3.6,5.4,12,61.9,1023.82,0,0,0,0,0.033989
2023/07/02 03:07:00.003,n,233,3.96,2.52,4.68,12,61.8,1023.92,0,0,0,0,0.035706
2023/07/02 03:08:00.002,n,187,1.8,0.72,3.96,12,61.8,1023.82,0,0,0,0,0.033989
2023/07/02 03:09:00.013,n,122,3.6,2.16,3.96,12,61.8,1023.82,0,0,0,0,0.033989
2023/07/02 03:10:00.004,n,149,1.44,0,2.16,12,61.8,1023.82,0,0,0,0,0.033073
2023/07/02 03:11:00.002,n,187,2.52,1.8,2.88,11.9,61.9,1023.82,0,0,0,0,0.033989
2023/07/02 03:12:00.001,n,169,2.88,1.8,6.84,12,62.2,1023.92,0,0,0,0,0.033989
2023/07/02 03:13:00.001,n,299,5.4,4.68,6.12,12,62.5,1024.02,0,0,0,0,0.02964
2023/07/02 03:14:00.009,n,159,2.16,1.44,3.6,12,62.1,1024.12,0,0,0,0,0.036583
2023/07/02 03:15:00.002,n,172,2.52,1.08,5.76,12,62.6,1024.12,0,0,0,0,0.033073
2023/07/02 03:16:00.001,n,170,0.72,0.36,1.08,12,62.9,1024.12,0,0,0,0,0.033989
2023/07/02 03:17:00.005,n,263,2.88,0.36,3.6,12,62.6,1024.22,0,0,0,0,0.032234
2023/07/02 03:18:00.020,n,283,3.96,2.88,5.76,12,62.2,1024.22,0,0,0,0,0.033989
2023/07/02 03:19:00.001,n,274,7.2,6.48,9.36,11.9,62.1,1024.32,0,0,0,0,0.035706
2023/07/02 03:20:00.001,n,249,4.32,1.08,5.76,11.9,62.2,1024.42,0,0,0,0,0.044403
2023/07/02 03:21:00.001,n,291,2.16,1.08,3.6,11.9,63.4,1024.42,0,0,0,0,0.032234
2023/07/02 03:22:00.008,n,263,5.76,5.04,5.76,11.9,62.7,1024.52,0,0,0,0,0.032234
2023/07/02 03:23:00.002,n,292,5.76,4.68,6.84,11.9,63.5,1024.52,0,0,0,0,0.037422
2023/07/02 03:24:00.001,n,273,4.32,1.08,5.76,11.9,63.2,1024.62,0,0,0,0,0.033989
2023/07/02 03:25:00.013,n,306,5.76,4.68,7.2,11.9,62.7,1024.72,0,0,0,0,0.034828
2023/07/02 03:26:00.003,n,276,4.68,4.32,5.4,11.9,63,1024.72,0,0,0,0,0.033989
2023/07/02 03:27:00.015,n,276,3.6,2.52,4.32,11.8,63.6,1024.72,0,0,0,0,0.034828
2023/07/02 03:28:00.002,n,261,6.84,5.76,7.56,11.8,62.8,1024.72,0,0,0,0,0.02964
2023/07/02 03:29:00.001,n,253,5.4,4.32,6.12,11.8,62.7,1024.72,0,0,0,0,0.033073
2023/07/02 03:30:00.008,n,177,1.8,0.72,3.96,11.8,62.8,1024.72,0,0,0,0,0.034828
2023/07/02 03:31:00.010,n,271,3.6,2.88,4.68,11.8,62.7,1024.72,0,0,0,0,0.032234
2023/07/02 03:32:00.009,n,237,1.8,1.08,2.52,11.8,63.7,1024.72,0,0,0,0,0.032234
2023/07/02 03:33:00.001,n,147,2.88,1.44,3.96,11.8,63.5,1024.82,0,0,0,0,0.034828
2023/07/02 03:34:00.016,n,187,6.84,5.04,8.64,11.8,63.1,1024.82,0,0,0,0,0.031357
2023/07/02 03:35:00.020,n,196,2.16,2.16,3.24,11.8,62.9,1024.82,0,0,0,0,0.032234
2023/07/02 03:36:00.014,n,168,1.08,0.36,1.44,11.8,63.1,1024.72,0,0,0,0,0.028725
2023/07/02 03:37:00.001,n,221,1.44,1.44,2.52,11.8,63.3,1024.72,0,0,0,0,0.028725
2023/07/02 03:38:00.001,n,143,2.52,0.72,3.6,11.8,63.2,1024.72,0,0,0,0,0.032234
2023/07/02 03:39:00.011,n,189,5.76,3.96,8.64,11.8,63.3,1024.72,0,0,0,0,0.031357
2023/07/02 03:40:00.001,n,154,2.88,0.36,7.2,11.8,63.4,1024.82,0,0,0,0,0.032234
2023/07/02 03:41:00.008,n,204,2.16,1.44,3.6,11.8,63.4,1024.82,0,0,0,0,0.028725
2023/07/02 03:42:00.001,n,181,5.4,2.88,7.2,11.8,63.3,1024.92,0,0,0,0,0.027847
2023/07/02 03:43:00.007,n,258,5.76,5.04,6.12,11.8,63.3,1024.92,0,0,0,0,0.031357
2023/07/02 03:44:00.007,n,254,2.88,1.44,4.32,11.8,63.4,1025.02,0,0,0,0,0.028725
2023/07/02 03:45:00.020,n,238,0.36,0.36,1.44,11.8,63.3,1025.02,0,0,0,0,0.027847
2023/07/02 03:46:00.001,n,177,2.88,0.72,6.12,11.8,63.4,1025.02,0,0,0,0,0.032234
2023/07/02 03:47:00.001,n,245,0.72,0.36,1.08,11.8,63.3,1025.02,0,0,0,0,0.028725
2023/07/02 03:48:00.001,n,113,1.8,1.08,2.52,11.8,63.3,1024.92,0,0,0,0,0.027847
2023/07/02 03:49:00.008,n,300,2.16,1.08,5.04,11.8,64,1024.92,0,0,0,0,0.027008
2023/07/02 03:50:00.007,n,49,1.08,0.36,2.52,11.8,64.5,1024.82,0,0,0,0,0.026131
2023/07/02 03:51:00.005,n,158,7.92,7.2,8.64,11.9,63.6,1024.82,0,0,0,0,0.025253
2023/07/02 03:52:00.014,n,121,3.96,3.24,3.96,11.8,63.3,1024.82,0,0,0,0,0.02964
2023/07/02 03:53:00.010,n,126,3.24,2.16,4.32,11.8,63.4,1024.72,0,0,0,0,0.025253
2023/07/02 03:54:00.017,n,161,5.4,3.24,9.72,11.8,63.4,1024.62,0,0,0,0,0.023499
2023/07/02 03:55:00.007,n,154,2.16,1.08,3.24,11.8,63.5,1024.52,0,0,0,0,0.023499
2023/07/02 03:56:00.005,n,146,2.52,1.8,3.96,11.7,63.5,1024.52,0,0,0,0,0.025253
2023/07/02 03:57:00.001,n,231,1.44,0.36,4.68,11.7,63.6,1024.52,0,0,0,0,0.027847
2023/07/02 03:58:00.001,n,193,1.08,0.72,1.44,11.7,63.7,1024.62,0,0,0,0,0.025253
2023/07/02 03:59:00.020,n,166,7.2,3.6,7.92,11.7,63.7,1024.62,0,0,0,0,0.024376
2023/07/02 04:00:00.003,n,168,7.92,2.88,11.88,11.7,63.8,1024.62,0,0,0,0,0.024376
2023/07/02 04:01:00.002,n,281,3.6,3.6,3.96,11.7,63.8,1024.62,0,0,0,0,0.025253
2023/07/02 04:02:00.014,n,182,5.04,2.52,7.2,11.6,63.9,1024.72,0,0,0,0,0.020905
2023/07/02 04:03:00.009,n,176,3.96,2.52,7.2,11.6,64,1024.82,0,0,0,0,0.021782
2023/07/02 04:04:00.001,n,211,2.88,2.16,3.6,11.6,64.1,1024.92,0,0,0,0,0.021782
2023/07/02 04:05:00.002,n,267,6.12,5.76,6.84,11.6,64.1,1024.92,0,0,0,0,0.024376
2023/07/02 04:06:00.002,n,235,2.88,1.08,3.96,11.7,64.4,1024.92,0,0,0,0,0.022659
2023/07/02 04:07:00.005,n,202,2.52,1.8,3.24,11.6,64.199996,1025.02,0,0,0,0,0.022659
2023/07/02 04:08:00.003,n,185,1.44,0.72,1.8,11.6,64.300004,1025.02,0,0,0,0,0.025253
2023/07/02 04:09:00.012,n,170,2.52,0.72,6.12,11.6,64.300004,1025.02,0,0,0,0,0.025253
2023/07/02 04:10:00.007,n,189,3.24,1.44,6.48,11.6,64.4,1025.02,0,0,0,0,0.024376
2023/07/02 04:11:00.012,n,201,3.6,1.44,4.32,11.6,64.4,1025.12,0,0,0,0,0.023499
2023/07/02 04:12:00.003,n,174,4.68,2.16,7.56,11.5,64.4,1025.12,0,0,0,0,0.026131
2023/07/02 04:13:00.001,n,210,6.84,5.76,11.16,11.5,64.5,1025.22,0,0,0,0,0.024376
2023/07/02 04:14:00.002,n,170,3.6,1.8,6.84,11.5,64.4,1025.22,0,0,0,0,0.024376
2023/07/02 04:15:00.001,n,200,2.52,0.72,8.28,11.5,64.4,1025.32,0,0,0,0,0.023499
2023/07/02 04:16:00.012,n,193,2.52,1.8,3.96,11.5,64.4,1025.42,0,0,0,0,0.020027
2023/07/02 04:17:00.007,n,294,4.32,3.6,4.68,11.5,64.9,1025.42,0,0,0,0,0.020905
2023/07/02 04:18:00.013,n,278,1.08,0.36,1.8,11.5,64.800004,1025.42,0,0,0,0,0.020027
2023/07/02 04:19:00.001,n,33,2.88,1.08,7.92,11.5,65.300004,1025.32,0,0,0,0,0.020027
2023/07/02 04:20:00.015,n,147,2.88,1.44,5.76,11.5,64.699996,1025.32,0,0,0,0,0.018311
2023/07/02 04:21:00.006,n,229,2.16,1.44,2.52,11.5,64.4,1025.22,0,0,0,0,0.020905
2023/07/02 04:22:00.001,n,176,6.48,3.96,10.440002,11.5,64.300004,1025.22,0,0,0,0,0.020027
2023/07/02 04:23:00.002,n,148,5.4,3.6,11.52,11.5,64.300004,1025.22,0,0,0,0,0.02697
2023/07/02 04:24:00.001,n,159,3.96,1.44,10.8,11.5,64.300004,1025.12,0,0,0,0,0.027885
2023/07/02 04:25:00.012,n,210,7.2,6.12,7.56,11.5,64.199996,1025.12,0,0,0,0,0.032234
2023/07/02 04:26:00.010,n,156,11.16,6.12,14.04,11.5,64.199996,1025.12,0,0,0,0,0.026093
2023/07/02 04:27:00.005,n,174,5.4,3.24,9.36,11.5,64.300004,1025.12,0,0,0,0,0.030441
2023/07/02 04:28:00.010,n,189,5.04,3.6,9,11.4,64.300004,1025.12,0,0,0,0,0.026093
2023/07/02 04:29:00.023,n,166,8.64,4.68,11.16,11.4,64.4,1025.12,0,0,0,0,0.025253
2023/07/02 04:30:00.008,n,156,1.8,0.72,7.56,11.4,64.4,1025.02,0,0,0,0,0.025253
2023/07/02 04:31:00.001,n,177,6.84,6.12,9,11.4,64.4,1025.02,0,0,0,0,0.029602
2023/07/02 04:32:00.001,n,166,12.6,6.84,14.04,11.4,64.4,1025.02,0,0,0,0,0.027885
2023/07/02 04:33:00.001,n,175,6.84,4.32,9.36,11.4,64.5,1025.02,0,0,0,0,0.026093
2023/07/02 04:34:00.001,n,156,9.36,7.2,12.96,11.4,64.6,1025.02,0,0,0,0,0.024376
2023/07/02 04:35:00.011,n,181,0.72,0,1.44,11.4,64.6,1024.92,0,0,0,0,0.02697
2023/07/02 04:36:00.003,n,154,7.92,5.76,11.52,11.4,64.6,1024.92,0,0,0,0,0.025253
2023/07/02 04:37:00.006,n,161,4.32,1.08,9,11.4,64.6,1024.92,0,0,0,0,0.026093
2023/07/02 04:38:00.002,n,170,3.24,2.52,8.28,11.4,64.699996,1024.92,0,0,0,0,0.027885
2023/07/02 04:39:00.008,n,165,1.8,1.08,2.52,11.4,64.699996,1024.92,0,0,0,0,0.026093
2023/07/02 04:40:00.002,n,187,0.72,0,1.44,11.4,64.699996,1024.92,0,0,0,0,0.024376
2023/07/02 04:41:00.001,n,135,3.6,2.88,4.68,11.3,64.800004,1024.92,0,0,0,0,0.021744
2023/07/02 04:42:00.006,n,154,1.08,0.72,2.52,11.3,64.800004,1024.92,0,0,0,0,0.020905
2023/07/02 04:43:00.008,n,190,2.88,1.44,3.6,11.3,64.800004,1024.92,0,0,0,0,0.01915
2023/07/02 04:44:00.009,n,173,6.84,4.32,9.36,11.3,64.800004,1024.92,0,0,0,0,0.01915
2023/07/02 04:45:00.001,n,177,9,6.48,13.32,11.3,64.800004,1024.92,0,0,0,0,0.022621
2023/07/02 04:46:00.010,n,159,10.8,9.36,11.16,11.3,64.699996,1024.92,0,0,0,0,0.023499
2023/07/02 04:47:00.007,n,176,6.48,4.32,9.72,11.3,64.800004,1025.02,0,0,0,0,0.023499
2023/07/02 04:48:00.013,n,205,3.96,3.6,4.32,11.3,64.800004,1025.02,0,0,0,0,0.032196
2023/07/02 04:49:00.002,n,203,2.52,2.16,2.88,11.3,64.9,1025.02,0,0,0,0,0.027847
2023/07/02 04:50:00.002,n,152,7.2,5.04,10.8,11.3,65.1,1025.02,0,0,0,0,0.025253
2023/07/02 04:51:00.001,n,170,4.32,1.44,8.64,11.3,65.199996,1025.02,0,0,0,0,0.026131
2023/07/02 04:52:00.006,n,152,7.92,4.32,11.16,11.3,65.199996,1025.02,0,0,0,0,0.025253
2023/07/02 04:53:00.012,n,161,8.28,5.4,11.88,11.3,65.1,1025.02,0,0,0,0,0.029602
2023/07/02 04:54:00.015,n,148,3.6,0.36,8.64,11.3,65.199996,1025.12,0,0,0,0,0.027847
2023/07/02 04:55:00.001,n,167,3.6,0,7.92,11.3,65.199996,1025.12,0,0,0,0,0.028763